Regional Weather Roundup
Issued by NWS Northern Indiana

Home | Current Version | Previous Version | Graphics & Text | Print | Product List | Glossary On
Versions: 1 2 3 4 5 6 7 8 9 10 11 12 13 14 15 16 17 18 19 20 21 22 23 24 25 26 27 28 29 30 31 32 33 34 35 36 37 38 39 40 41 42 43 44 45 46 47 48 49 50
601
ASUS43 KIWX 242300
RWRIWX

KIWX WEATHER ROUNDUP
NATIONAL WEATHER SERVICE NORTHERN INDIANA
700 PM EDT SAT JUN 24 2017

NOTE: "FAIR" INDICATES FEW OR NO CLOUDS BELOW 12,000 FEET WITH NO
SIGNIFICANT WEATHER AND/OR OBSTRUCTIONS TO VISIBILITY.

* THESE STATIONS ARE NOT UNDER NWS QUALITY CONTROL. THEY ALSO MAY NOT
  REPORT WEATHER SUCH AS PRECIPITATION OR FOG.

INZ001>027-250000-
NORTHERN INDIANA

CITY           SKY/WX    TMP DP  RH WIND       PRES   REMARKS
GARY*            N/A     73  39  29 W20G35    30.00S
MICHIGAN CITY* SUNNY     72  50  46 NW6       30.00S
KNOX*          MOSUNNY   73  36  25 W16       29.99S
SOUTH BEND     SUNNY     71  49  45 NW10      29.99S
GOSHEN         SUNNY     72  47  40 NW13      29.98S
MONTICELLO*    MOSUNNY   72  46  40 W10       30.02S
FORT WAYNE     MOSUNNY   74  49  41 W18       29.98R
PERU/GRISSOM   SUNNY     73  50  43 W16G23    29.99S

$$
INZ028>050-250000-
CENTRAL INDIANA

CITY           SKY/WX    TMP DP  RH WIND       PRES   REMARKS
LAFAYETTE      MOSUNNY   72  50  45 W10       30.02F
KOKOMO*        SUNNY     72  49  44 W18       30.03R
MUNCIE*        MOSUNNY   73  53  49 NW12      30.01R
INDIANAPOLIS   MOSUNNY   74  51  44 W17G26    30.03S

$$
MIZ043>046-050>051-056>058-064>065-071>073-077>080-250000-
SOUTHWEST LOWER MICHIGAN

CITY           SKY/WX    TMP DP  RH WIND       PRES   REMARKS
BATTLE CREEK   MOSUNNY   71  48  43 W21       29.98S
BENTON HARBOR  SUNNY     71  49  45 W8        29.98F
COLDWATER*     MOSUNNY   71  45  39 W18       29.97S
HILLSDALE*     MOSUNNY   70  48  46 W16G22    29.96S
HOLLAND        SUNNY     70  48  45 NW9       29.97S
GRAND RAPIDS   MOSUNNY   70  47  43 W16G25    29.95S
KALAMAZOO      MOSUNNY   72  44  36 W12       29.98R
STURGIS*       MOSUNNY   69  49  47 NW13G20   29.98R
THREE RIVERS*  FAIR      71  46  41 NW14G21   29.99R

$$
OHZ001>008-015>018-024>025-250000-
NORTHWEST OHIO

CITY           SKY/WX    TMP DP  RH WIND       PRES   REMARKS
DEFIANCE       MOSUNNY   72  52  49 VRB7      29.96R
FINDLAY        SUNNY     75  52  44 W14       29.95R
TOLEDO EXPRESS MOSUNNY   74  50  42 W20G28    29.94R
TOLEDO METCALF MOSUNNY   76  52  43 W17       29.94R
LIMA           SUNNY     74  54  49 W20       29.97R

$$
AND FOR LAKE MICHIGAN COASTAL AND OPEN LAKE BUOY OBSERVATIONS

STATION/POSITION TEMP    WIND        PRES    VSBY  WAVE
                 AIR SEA DIR/SP/G                  HT/PER
                 (F)     (DEG/KT/KT) (MB)    (MI)  (FT/S)
CALUMET HARBOR    72     270/  6/ 17 1015.1S
MICHIGAN CITY     71     320/  4/  5   N/A
BURNS HARBOR      70     280/ 15/ 17 1015.9F
SOUTH LAKE BUOY   64 63  250/  2/  4 1014.7          1/ 3
4 MI NW BRIDGMAN  68 69  320/  4/  6 1015.2F         2/ 4
MICHIGAN CITY     69 68  340/  2/  6   N/A           2/ 4

$$
&&




USA.gov is the U.S. government's official web portal to all federal, state and local government web resources and services.